Location: Siemianowice Slaskie
(50.3000°N, 19.0330°E)
Time: 00:49:42
(UTC+01:00)

ISS - Visible Passes

Search period start: 26 January 2020 00:00
Search period end: 05 February 2020 00:00
Orbit: 416 x 423 km, 51.6° (Epoch: 26 January)

Date Brightness Start Highest point End Pass type
(mag) Time Alt. Az. Time Alt. Az. Time Alt. Az.
26 Jan -3.9 18:28:29 10° WSW 18:31:52 84° NNW 18:31:57 82° NNE visible
27 Jan -3.8 17:40:58 10° WSW 17:44:22 81° SSE 17:46:24 22° ENE visible
27 Jan -1.3 19:17:54 10° W 19:19:22 24° WNW 19:19:22 24° WNW visible
28 Jan -3.7 18:30:20 10° W 18:33:43 68° N 18:33:48 68° N visible
29 Jan -3.7 17:42:45 10° W 17:46:08 73° N 17:48:13 22° ENE visible
29 Jan -1.4 19:19:41 10° WNW 19:21:11 24° WNW 19:21:11 24° WNW visible
30 Jan -3.8 18:32:08 10° WNW 18:35:32 72° N 18:35:36 72° NNE visible
31 Jan -3.7 17:44:33 10° W 17:47:56 68° N 17:50:03 21° E visible
31 Jan -1.5 19:21:26 10° WNW 19:23:01 25° W 19:23:01 25° W visible
01 Feb -3.9 18:33:50 10° WNW 18:37:14 83° SSW 18:37:29 74° SE visible
02 Feb -3.8 17:46:15 10° WNW 17:49:40 82° NNE 17:52:00 19° E visible
02 Feb -1.4 19:23:12 10° W 19:24:58 24° WSW 19:24:58 24° WSW visible
03 Feb -3.0 18:35:31 10° WNW 18:38:48 47° SSW 18:39:35 38° SSE visible
04 Feb -3.4 17:47:54 10° WNW 17:51:16 65° SSW 17:54:17 12° ESE visible
04 Feb -1.1 19:25:23 10° W 19:27:16 16° SW 19:27:16 16° SW visible
